Weather History for KPRC - February, 2014

Change the Weather History Date:

Thursday, February 13, 2014

  Actual Average Record
Temperature  
Mean Temperature 54 °F 41 °F  
Max Temperature 74 °F 55 °F 76 °F (1957)
Min Temperature 33 °F 28 °F 11 °F (1948)
Degree Days  
Heating Degree Days 11    
Month to date heating degree days 303  
Since 1 July heating degree days 2695  
Cooling Degree Days 0    
Month to date cooling degree days 0  
Year to date cooling degree days 0  
Growing Degree Days 4 (Base 50)    
Moisture  
Dew Point 22 °F    
Average Humidity 36    
Maximum Humidity 61    
Minimum Humidity 14    
Precipitation  
Precipitation 0.00 in 0.06 in 1.02 in (1992)
Month to date precipitation T 0.58  
Year to date precipitation 0.05 1.70  
Sea Level Pressure  
Sea Level Pressure 30.04 in    
Wind  
Wind Speed 6 mph (SSW)    
Max Wind Speed 14 mph    
Max Gust Speed 18 mph    
Visibility 10 miles    
Events      
T = Trace of Precipitation, MM = Missing Value Source: NWS Daily Summary

Daily Weather History Graph

Daily Weather History Graph

Search for Another Location

Airport or City:

Trip Planner

Search our weather history database for the weather conditions in past years. The results will help you decide how hot, cold, wet, or windy it might be!

Date:

Astronomy

Feb. 13, 2014 Rise Set
Actual Time 7:17 AM MST 6:11 PM MST
Civil Twilight 6:51 AM MST 6:36 PM MST
Nautical Twilight 6:21 AM MST 7:06 PM MST
Astronomical Twilight 5:52 AM MST 7:35 PM MST
Moon 5:22 PM MST (2/13) 6:12 AM MST (2/13)
Length of Visible Light 11h 45m
Length of Day
10h 53m
Waxing Gibbous, 99% of the Moon is Illuminated
Feb 13
Waxing Gibbous
Feb 14
Full
Feb 22
Last Quarter
Mar 1
New
Mar 8
First Quarter

Hourly Weather History & Observations

Time (MST) Temp. Windchill Dew Point Humidity Pressure Visibility Wind Dir Wind Speed Gust Speed Precip Events Conditions
12:53 AM 41.0 °F 35.2 °F 19.9 °F 43% 30.07 in 10.0 mi South 9.2 mph - N/A   Clear
1:53 AM 39.0 °F 32.8 °F 21.9 °F 50% 30.06 in 10.0 mi South 9.2 mph - N/A   Clear
2:53 AM 37.9 °F 32.7 °F 21.9 °F 53% 30.06 in 10.0 mi South 6.9 mph - N/A   Clear
3:53 AM 39.0 °F - 21.0 °F 49% 30.04 in 10.0 mi Calm Calm - N/A   Clear
4:53 AM 34.0 °F 28.8 °F 21.0 °F 59% 30.05 in 10.0 mi SSW 5.8 mph - N/A   Clear
5:53 AM 35.1 °F 31.0 °F 21.0 °F 57% 30.06 in 10.0 mi SSW 4.6 mph - N/A   Clear
6:53 AM 34.0 °F 28.0 °F 21.0 °F 59% 30.10 in 10.0 mi South 6.9 mph - N/A   Clear
7:53 AM 35.1 °F 31.0 °F 21.9 °F 59% 30.14 in 10.0 mi SSW 4.6 mph - N/A   Clear
8:53 AM 46.9 °F - 24.1 °F 41% 30.13 in 10.0 mi Calm Calm - N/A   Clear
9:53 AM 55.0 °F - 21.9 °F 28% 30.12 in 10.0 mi NNE 5.8 mph - N/A   Clear
10:53 AM 60.1 °F - 21.0 °F 22% 30.11 in 10.0 mi Variable 3.5 mph - N/A   Clear
11:53 AM 64.9 °F - 21.0 °F 19% 30.07 in 10.0 mi Calm Calm - N/A   Clear
12:53 PM 70.0 °F - 21.9 °F 16% 30.02 in 10.0 mi North 5.8 mph - N/A   Clear
1:53 PM 71.1 °F - 19.9 °F 14% 29.98 in 10.0 mi Variable 3.5 mph - N/A   Clear
2:53 PM 73.0 °F - 21.0 °F 14% 29.95 in 10.0 mi NNE 6.9 mph - N/A   Clear
3:53 PM 72.0 °F - 21.0 °F 15% 29.94 in 10.0 mi West 12.7 mph - N/A   Clear
4:53 PM 70.0 °F - 21.0 °F 16% 29.97 in 10.0 mi SW 12.7 mph - N/A   Clear
5:53 PM 64.9 °F - 21.0 °F 19% 29.99 in 10.0 mi SW 8.1 mph - N/A   Clear
6:53 PM 60.1 °F - 21.0 °F 22% 30.02 in 10.0 mi SSW 10.4 mph - N/A   Clear
7:53 PM 53.1 °F - 25.0 °F 34% 30.04 in 10.0 mi South 6.9 mph - N/A   Clear
8:53 PM 48.9 °F - 24.1 °F 38% 30.01 in 10.0 mi South 6.9 mph - N/A   Clear
9:53 PM 46.0 °F - 21.9 °F 39% 30.04 in 10.0 mi Calm Calm - N/A   Clear
10:53 PM 42.1 °F 38.4 °F 24.1 °F 49% 30.04 in 10.0 mi South 5.8 mph - N/A   Clear
11:53 PM 42.1 °F 38.4 °F 24.1 °F 49% 30.02 in 10.0 mi South 5.8 mph - N/A   Clear